N5MDT Weather Reports


Display with metric or nautical units.
time (UTC)temp
F
wind
direction
speed
MPH
gust
MPH
rain 1hr
in
rain 24hr
in
rain mn
in
humidity
%
barometer
mb
20260509092844 74 129 0.0 0.0 0.00 0.00 0.00 89 1010.6
20260509091845 74 129 0.0 0.0 0.00 0.00 0.00 89 1010.8
20260509090844 74 129 0.0 0.0 0.00 0.00 0.00 89 1011.1
20260509085844 74 129 0.0 0.0 0.00 0.00 0.00 89 1011.2
20260509084844 74 129 0.0 0.0 0.00 0.00 0.00 89 1011.0
20260509083844 74 129 0.0 0.0 0.00 0.00 0.00 89 1011.0
20260509082844 74 129 0.0 0.0 0.00 0.00 0.00 89 1011.1
20260509081844 74 129 0.0 0.0 0.00 0.00 0.00 89 1011.0
20260509080859 74 129 0.0 0.0 0.00 0.00 0.00 89 1011.1
20260509075859 74 129 0.0 0.0 0.00 0.00 0.00 89 1011.3
20260509074844 74 129 0.0 0.0 0.00 0.00 0.00 89 1011.2
20260509073844 74 129 0.0 0.0 0.00 0.00 0.00 89 1011.2
20260509072859 74 157 0.0 5.0 0.00 0.00 0.00 89 1010.9
20260509071844 74 134 2.0 2.0 0.00 0.00 0.00 89 1010.8
20260509070844 74 111 0.0 3.0 0.00 0.00 0.00 89 1010.8
20260509065844 74 159 1.0 4.0 0.00 0.00 0.00 89 1011.0
20260509064843 74 113 2.0 4.0 0.00 0.00 0.00 88 1011.0
20260509063843 74 84 2.0 6.0 0.00 0.00 0.00 88 1010.8
20260509062843 74 174 1.0 6.0 0.00 0.00 0.00 88 1010.7
20260509061844 74 121 0.0 4.0 0.00 0.00 0.00 88 1011.0
20260509060843 74 76 4.0 4.0 0.00 0.00 0.00 88 1011.1
20260509055843 74 148 0.0 6.0 0.00 0.00 0.00 88 1011.3
20260509054843 74 95 0.0 6.0 0.00 0.00 0.00 88 1011.3
20260509053843 74 94 1.0 7.0 0.00 0.00 0.00 88 1011.4
20260509052843 74 101 2.0 7.0 0.00 0.00 0.00 88 1011.3
20260509051843 74 165 4.0 7.0 0.00 0.00 0.00 88 1011.2
20260509050843 74 125 1.0 7.0 0.00 0.00 0.00 87 1011.4
20260509045843 74 94 0.0 4.0 0.00 0.00 0.00 87 1011.5
20260509044858 74 121 0.0 6.0 0.00 0.00 0.00 87 1011.4
20260509043842 74 80 0.0 2.0 0.00 0.00 0.00 87 1011.3
20260509042829 74 131 1.0 6.0 0.00 0.00 0.00 87 1011.3
20260509041829 74 138 1.0 7.0 0.00 0.00 0.00 87 1011.3
20260509040829 74 89 1.0 7.0 0.00 0.00 0.00 86 1011.1
20260509035829 74 73 0.0 6.0 0.00 0.00 0.00 86 1011.2
20260509034829 74 101 2.0 4.0 0.00 0.00 0.00 86 1011.4
20260509033829 74 146 3.0 8.0 0.00 0.00 0.00 85 1011.4
20260509032829 75 144 2.0 7.0 0.00 0.00 0.00 85 1011.3
20260509031844 75 81 0.0 4.0 0.00 0.00 0.00 85 1011.2
20260509030829 75 107 2.0 6.0 0.00 0.00 0.00 85 1011.0
20260509025829 75 96 4.0 5.0 0.00 0.00 0.00 84 1010.7
20260509024829 75 106 0.0 6.0 0.00 0.00 0.00 84 1010.6
20260509023828 75 115 1.0 9.0 0.00 0.00 0.00 83 1010.6
20260509022828 76 163 1.0 7.0 0.00 0.00 0.00 83 1010.7
20260509021828 76 151 0.0 8.0 0.00 0.00 0.00 83 1010.7
20260509020843 76 122 4.0 8.0 0.00 0.00 0.00 82 1010.7
20260509015828 76 122 2.0 9.0 0.00 0.00 0.00 81 1010.8
20260509014844 76 114 1.0 9.0 0.00 0.00 0.00 81 1010.6
20260509013828 76 160 0.0 8.0 0.00 0.00 0.00 81 1010.5
20260509012828 77 97 2.0 4.0 0.00 0.00 0.00 81 1010.5
20260509011828 77 95 0.0 3.0 0.00 0.00 0.00 80 1010.5
20260509010828 77 92 0.0 3.0 0.00 0.00 0.00 80 1010.1
20260509005843 77 104 2.0 3.0 0.00 0.00 0.00 80 1009.9
20260509004828 77 86 0.0 9.0 0.00 0.00 0.00 79 1010.2
20260509003858 77 119 3.0 7.0 0.00 0.00 0.00 79 1010.2
20260509002828 78 106 0.0 6.0 0.00 0.00 0.00 79 1010.2
20260509001827 78 108 2.0 7.0 0.00 0.00 0.00 78 1010.4
20260509000827 78 103 1.0 6.0 0.00 0.00 0.00 78 1010.3
20260508235842 78 137 5.0 7.0 0.00 0.00 0.00 78 1010.3
20260508234827 78 94 7.0 7.0 0.00 0.00 0.00 78 1010.5
20260508233827 78 84 0.0 3.0 0.00 0.00 0.00 78 1010.6
20260508232827 79 127 3.0 6.0 0.00 0.00 0.00 78 1010.5
20260508231827 79 88 0.0 4.0 0.00 0.00 0.00 78 1010.4
20260508230827 79 84 2.0 3.0 0.00 0.00 0.00 78 1010.4
20260508225827 80 80 0.0 7.0 0.00 0.00 0.00 77 1010.4
20260508224827 80 107 0.0 6.0 0.00 0.00 0.00 77 1010.4
20260508223827 80 107 2.0 6.0 0.00 0.00 0.00 77 1010.4
20260508222826 80 118 2.0 7.0 0.00 0.00 0.00 77 1010.4
20260508221827 80 98 0.0 4.0 0.00 0.00 0.00 77 1010.4
20260508220827 80 115 1.0 5.0 0.00 0.00 0.00 77 1010.5
20260508215826 80 83 0.0 3.0 0.00 0.00 0.00 77 1010.5
20260508214826 80 139 0.0 2.0 0.00 0.00 0.00 76 1010.5
20260508213826 81 143 1.0 6.0 0.00 0.00 0.00 76 1010.5
20260508212826 81 148 3.0 6.0 0.00 0.00 0.00 76 1010.6
20260508211826 81 113 3.0 4.0 0.00 0.00 0.00 75 1010.7
20260508210826 81 87 1.0 5.0 0.00 0.00 0.00 75 1010.7
20260508205826 81 147 2.0 6.0 0.00 0.00 0.00 75 1010.8
20260508204826 81 113 0.0 4.0 0.00 0.00 0.00 74 1010.9
20260508203826 82 144 1.0 3.0 0.00 0.00 0.00 75 1011.1
20260508202826 82 167 0.0 3.0 0.00 0.00 0.00 75 1011.3
20260508201826 82 92 2.0 4.0 0.00 0.00 0.00 75 1011.3
20260508200825 82 165 0.0 2.0 0.00 0.00 0.00 76 1011.4
20260508195825 81 184 0.0 3.0 0.00 0.00 0.00 77 1011.5
20260508194825 80 153 0.0 4.0 0.00 0.00 0.00 78 1011.6
20260508193825 80 88 0.0 6.0 0.00 0.00 0.00 77 1011.7
20260508192825 79 115 0.0 4.0 0.00 0.00 0.00 77 1011.7
20260508191825 79 193 0.0 2.0 0.00 0.00 0.00 78 1012.1
20260508190825 79 250 1.0 1.0 0.00 0.00 0.00 78 1012.2
20260508185841 79 127 0.0 2.0 0.00 0.00 0.00 79 1012.1
20260508184825 78 86 0.0 4.0 0.00 0.00 0.00 79 1012.0
20260508183825 78 169 0.0 0.0 0.00 0.00 0.00 80 1012.4
20260508182825 78 169 0.0 5.0 0.00 0.00 0.00 81 1012.4
20260508181825 77 116 2.0 2.0 0.00 0.00 0.00 82 1012.4
20260508180840 76 113 0.0 2.0 0.00 0.00 0.00 83 1012.4
20260508175824 75 113 0.0 3.0 0.00 0.00 0.00 82 1012.7
20260508174825 75 112 1.0 3.0 0.00 0.00 0.00 83 1012.9
20260508173840 74 83 0.0 0.0 0.00 0.00 0.00 83 1012.9
20260508172824 74 99 0.0 0.0 0.00 0.00 0.00 83 1013.0
20260508171824 74 91 0.0 0.0 0.00 0.00 0.00 83 1013.1
20260508170824 73 91 0.0 3.0 0.00 0.00 0.00 84 1013.2
20260508165824 73 90 2.0 3.0 0.00 0.00 0.00 84 1013.0
20260508164839 72 107 1.0 4.0 0.00 0.00 0.00 84 1013.1
20260508163824 72 89 0.0 2.0 0.00 0.00 0.00 84 1013.4
20260508162824 72 105 2.0 4.0 0.00 0.00 0.00 85 1013.5
20260508161824 71 49 0.0 0.0 0.00 0.00 0.00 86 1013.5
20260508160824 71 90 0.0 1.0 0.00 0.00 0.00 86 1013.5
20260508155824 70 71 0.0 2.0 0.00 0.00 0.00 86 1013.8
20260508154824 70 71 1.0 4.0 0.00 0.00 0.00 87 1013.9
20260508153824 69 44 2.0 7.0 0.00 0.00 0.00 87 1014.1
20260508152839 68 97 2.0 6.0 0.00 0.00 0.00 86 1014.2
20260508151839 68 91 1.0 6.0 0.00 0.00 0.00 87 1014.5
20260508150824 68 59 0.0 0.0 0.00 0.00 0.00 87 1014.5
20260508145824 67 59 0.0 0.0 0.00 0.00 0.00 86 1014.6
20260508144824 67 65 0.0 0.0 0.00 0.00 0.00 86 1014.7
20260508143839 67 74 0.0 2.0 0.00 0.00 0.00 86 1014.8
20260508142824 67 103 0.0 3.0 0.00 0.00 0.00 86 1015.0
20260508141839 67 63 2.0 2.0 0.00 0.00 0.00 86 1014.9
20260508140824 67 76 0.0 0.0 0.00 0.00 0.00 86 1014.9
20260508135824 67 40 0.0 0.0 0.00 0.00 0.00 86 1015.1
20260508134823 67 30 0.0 0.0 0.00 0.00 0.00 85 1015.2
20260508133824 67 30 0.0 1.0 0.00 0.00 0.00 85 1015.1
20260508132824 67 325 0.0 2.0 0.00 0.00 0.00 85 1014.8
20260508131823 67 286 1.0 3.0 0.00 0.00 0.00 85 1014.9
20260508130823 67 335 0.0 1.0 0.00 0.00 0.00 85 1014.6
20260508125839 67 335 0.0 0.0 0.00 0.00 0.00 85 1014.7
20260508124823 67 335 0.0 0.0 0.00 0.00 0.00 84 1014.6
20260508123823 67 335 0.0 1.0 0.00 0.00 0.00 84 1014.5
20260508122823 67 89 0.0 2.0 0.00 0.00 0.00 84 1013.9
20260508121839 67 89 0.0 0.0 0.00 0.00 0.00 83 1014.2
20260508120823 67 89 0.0 2.0 0.00 0.00 0.00 83 1014.5
20260508115823 67 342 0.0 2.0 0.00 0.00 0.00 82 1014.7
20260508114823 68 157 0.0 4.0 0.00 0.00 0.00 82 1014.1
20260508113823 68 131 2.0 3.0 0.00 0.00 0.00 81 1014.2
20260508112823 68 59 0.0 3.0 0.00 0.00 0.00 82 1013.8
20260508111822 68 86 0.0 0.0 0.00 0.00 0.00 80 1014.8
20260508110822 68 86 0.0 0.0 0.00 0.00 0.00 79 1013.9
20260508105822 68 86 0.0 1.0 0.00 0.00 0.00 79 1013.9
20260508104822 68 86 0.0 1.0 0.00 0.00 0.00 79 1014.0
20260508103822 68 63 0.0 1.0 0.00 0.00 0.00 79 1014.5
20260508102822 68 84 0.0 1.0 0.00 0.00 0.00 79 1014.9
20260508101822 68 66 0.0 1.0 0.00 0.00 0.00 79 1014.8
20260508100822 68 37 0.0 1.0 0.00 0.00 0.00 79 1014.7
20260508095822 68 351 0.0 0.0 0.00 0.00 0.00 78 1014.7
20260508094837 68 351 0.0 2.0 0.00 0.00 0.00 78 1014.7
20260508093822 68 67 0.0 1.0 0.00 0.00 0.00 78 1014.2